Tracking 29892 objects as of 21-Nov-2024
HD Live streaming from Space Station
objects crossing your sky now

FENGYUN 1C DEB

Track FENGYUN 1C DEB now!
10-day predictions


NORAD ID: 30313
Int'l Code: 1999-025AAA
Perigee: 786.7 km
Apogee: 873.8 km
Inclination: 98.9 °
Period: 101.4 minutes
Semi major axis: 7201 km
RCS: 0.0812 m2 (small)
Launch date: May 10, 1999
Source: People's Republic of China (PRC)
Launch site: Taiyaun Space Center, China (TSC)

Note: This is SATELLITE DEBRIS
Your satellite tracking list
Your tracking list is empty




NASA's NSSDC Master Catalog

Two Line Element Set (TLE):
1 30313U 99025AAA 24325.15483618  .00006953  00000-0  31866-2 0  9996
2 30313  98.8914  41.8026 0060457  14.2197  14.8348 14.20671317915766
Source of the keplerian elements: AFSPC